�N����,����,�~����,�C��,���x,�C��,����,���ϕ���,�ő�u�ԕ���,�ő厞����,���˗�,�I�_���x,�n�����x,�ő啗���N��,DTYPE
"22/08/13","00:10",0.0,25.4,93.6,1001.7,309.2,0.8,1.4,315.6,0.00,24.3,26.8,"00:02:32",1
"22/08/13","00:20",0.0,25.4,93.6,1001.9,291.4,0.7,1.1,261.5,0.00,24.3,26.6,"00:16:08",1
"22/08/13","00:30",0.0,25.4,93.8,1001.7,291.6,0.8,2.0,262.7,0.00,24.4,26.8,"00:28:32",1
"22/08/13","00:40",0.0,25.6,93.8,1001.7,282.8,0.6,1.6,285.9,0.00,24.6,27.0,"00:35:28",1
"22/08/13","00:50",0.0,25.6,93.8,1001.5,317.5,1.1,2.0,325.8,0.00,24.6,26.6,"00:47:20",1
"22/08/13","01:00",0.0,25.6,93.8,1001.5,309.6,0.8,1.2,343.5,0.00,24.6,26.8,"00:50:16",1
"22/08/13","01:10",0.0,25.6,93.8,1001.7,276.2,0.8,1.3,252.3,0.00,24.6,26.7,"01:02:08",1
"22/08/13","01:20",0.0,25.5,93.8,1001.2,288.9,0.8,1.7,296.6,0.00,24.5,26.7,"01:12:00",1
"22/08/13","01:30",0.0,25.5,93.9,1001.7,308.7,1.1,2.0,330.7,0.00,24.5,26.5,"01:28:08",1
"22/08/13","01:40",0.0,25.5,93.9,1001.2,306.4,1.1,1.8,316.6,0.00,24.5,26.7,"01:39:52",1
"22/08/13","01:50",0.0,25.5,94.0,1001.2,327.5,1.2,1.6,321.6,0.00,24.5,26.7,"01:40:40",1
"22/08/13","02:00",0.0,25.5,94.0,1001.5,324.4,1.1,1.9,343.5,0.00,24.5,26.6,"01:52:08",1
"22/08/13","02:10",0.0,25.5,94.0,1001.2,280.9,0.7,1.3,252.8,0.00,24.5,26.7,"02:04:00",1
"22/08/13","02:20",0.0,25.5,94.1,1001.5,301.0,0.8,1.2,297.3,0.00,24.5,26.5,"02:14:24",1
"22/08/13","02:30",0.0,25.5,94.1,1001.5,301.9,0.8,1.1,306.0,0.00,24.5,26.5,"02:20:32",1
"22/08/13","02:40",0.0,25.5,94.1,1001.2,287.8,0.7,1.2,310.6,0.00,24.5,26.6,"02:30:08",1
"22/08/13","02:50",0.0,25.5,94.0,1001.2,312.0,0.7,1.2,339.0,0.00,24.5,26.4,"02:46:40",1
"22/08/13","03:00",0.0,25.4,94.1,1001.2,315.3,1.0,2.0,329.5,0.00,24.4,26.4,"02:56:08",1
"22/08/13","03:10",0.0,25.4,94.2,1001.2,288.6,0.6,1.1,307.9,0.00,24.4,26.6,"03:02:40",1
"22/08/13","03:20",0.0,25.5,94.2,1001.2,287.3,0.7,1.3,265.6,0.00,24.5,26.6,"03:15:44",1
"22/08/13","03:30",0.0,25.5,94.2,1001.0,299.8,0.7,1.6,332.4,0.00,24.5,26.3,"03:24:48",1
"22/08/13","03:40",0.0,25.5,94.2,1001.0,303.5,0.8,1.8,326.6,0.00,24.5,26.3,"03:34:24",1
"22/08/13","03:50",0.0,25.6,94.2,1001.0,286.4,0.7,1.1,271.7,0.00,24.6,26.6,"03:40:48",1
"22/08/13","04:00",0.0,25.5,94.2,1001.2,312.4,1.0,1.8,333.8,0.00,24.5,26.4,"03:54:08",1
"22/08/13","04:10",0.0,25.5,94.2,1001.0,298.7,0.8,1.4,325.4,0.00,24.5,26.6,"04:01:44",1
"22/08/13","04:20",0.0,25.5,94.1,1001.0,298.0,0.8,1.8,299.1,0.00,24.5,26.4,"04:15:28",1
"22/08/13","04:30",0.0,25.4,94.1,1001.0,307.6,0.8,1.2,261.9,0.00,24.4,26.4,"04:28:16",1
"22/08/13","04:40",0.0,25.4,94.1,1001.2,320.5,1.1,1.4,319.4,0.00,24.4,26.5,"04:34:08",1
"22/08/13","04:50",0.0,25.4,94.0,1001.2,337.4,1.1,1.7,333.0,0.00,24.4,26.4,"04:45:44",1
"22/08/13","05:00",0.0,25.4,93.9,1001.2,322.9,1.0,1.6,329.9,0.00,24.4,26.4,"04:51:04",1
"22/08/13","05:10",0.0,25.5,94.0,1001.2,291.8,0.6,1.3,339.3,0.00,24.5,26.5,"05:00:08",1
"22/08/13","05:20",0.0,25.4,93.9,1001.2,296.2,0.6,1.2,293.1,0.00,24.4,26.2,"05:14:32",1
"22/08/13","05:30",0.0,25.4,93.9,1001.0,296.7,0.6,1.2,334.8,0.00,24.4,26.3,"05:20:48",1
"22/08/13","05:40",0.0,25.5,93.9,1001.0,304.7,0.3,1.1,258.1,0.00,24.5,26.2,"05:31:12",1
"22/08/13","05:50",0.0,25.7,93.6,1001.0,309.0,0.6,2.0,351.0,0.00,24.6,26.5,"05:43:12",1
"22/08/13","06:00",0.0,25.8,93.4,1001.2,276.0,0.3,1.6,130.2,0.00,24.7,26.2,"05:59:12",1
"22/08/13","06:10",0.0,25.7,93.2,1001.2,105.7,0.6,1.9,158.9,0.00,24.6,26.3,"06:05:12",1
"22/08/13","06:20",0.0,25.7,92.6,1001.0,130.2,0.6,1.6,113.9,0.00,24.4,26.3,"06:15:12",1
"22/08/13","06:30",0.0,26.0,92.2,1001.0,319.6,0.7,1.6,344.3,0.00,24.7,26.3,"06:27:44",1
"22/08/13","06:40",0.0,26.1,91.8,1000.8,320.9,1.1,2.0,326.5,0.00,24.7,26.1,"06:39:20",1
"22/08/13","06:50",0.0,26.4,91.5,1000.5,307.4,1.0,1.7,327.1,0.02,24.9,26.3,"06:42:48",1
"22/08/13","07:00",0.0,26.8,90.8,1001.0,337.4,1.1,2.2,348.8,0.04,25.2,26.3,"06:51:36",1
"22/08/13","07:10",0.0,27.8,90.3,1001.0,318.7,0.3,1.0,321.5,0.06,26.1,26.1,"07:04:32",1
"22/08/13","07:20",0.0,28.3,88.4,1001.2,328.8,0.2,1.1,6.7,0.09,26.2,26.3,"07:18:56",1
"22/08/13","07:30",0.0,29.3,85.5,1000.0,57.7,0.2,1.0,36.5,0.11,26.7,26.3,"07:20:24",1
"22/08/13","07:40",0.0,29.8,81.7,1000.5,142.0,0.2,0.8,156.6,0.10,26.4,26.3,"07:32:48",1
"22/08/13","07:50",0.0,30.2,77.3,1001.2,163.4,0.3,0.9,127.6,0.12,25.8,26.2,"07:47:52",1
"22/08/13","08:00",0.0,30.2,74.3,1001.0,323.4,0.5,1.8,6.4,0.08,25.2,26.3,"07:58:32",1
"22/08/13","08:10",0.0,29.9,74.4,1000.8,68.8,0.6,1.8,298.7,0.10,24.9,26.3,"08:05:12",1
"22/08/13","08:20",0.0,29.9,75.7,1000.8,332.3,0.5,1.4,358.8,0.11,25.2,26.2,"08:12:40",1
"22/08/13","08:30",0.0,30.0,75.6,1000.8,184.1,0.2,1.3,118.9,0.13,25.3,26.3,"08:27:28",1
"22/08/13","08:40",0.0,30.0,74.8,1001.0,253.1,0.5,1.0,222.3,0.14,25.1,26.2,"08:34:00",1
"22/08/13","08:50",0.0,30.6,73.3,1001.0,354.6,0.7,1.2,350.8,0.21,25.3,26.2,"08:40:16",1
"22/08/13","09:00",0.0,30.8,71.8,1001.5,123.4,0.7,1.7,127.0,0.18,25.2,26.2,"08:56:40",1
"22/08/13","09:10",0.0,30.7,69.4,1001.2,93.1,1.3,2.9,152.5,0.22,24.5,26.1,"09:00:56",1
"22/08/13","09:20",0.0,31.0,70.3,1001.2,149.8,1.1,2.2,130.5,0.23,25.0,26.2,"09:16:48",1
"22/08/13","09:30",0.0,31.0,70.4,1001.2,118.0,1.0,3.3,128.5,0.18,25.0,26.3,"09:24:08",1
"22/08/13","09:40",0.0,30.7,70.5,1001.2,105.3,1.2,2.6,120.9,0.19,24.8,26.6,"09:38:40",1
"22/08/13","09:50",0.0,30.7,71.0,1001.2,117.1,1.2,3.3,116.7,0.21,24.9,26.3,"09:47:04",1
"22/08/13","10:00",0.0,30.6,70.4,1001.0,95.1,1.1,2.6,105.7,0.18,24.6,26.4,"09:54:56",1
"22/08/13","10:10",0.0,30.7,71.2,1001.0,112.1,1.1,3.1,83.7,0.19,24.9,26.3,"10:07:20",1
"22/08/13","10:20",0.0,31.3,71.9,1001.2,89.2,1.0,2.6,113.9,0.29,25.7,26.2,"10:12:32",1
"22/08/13","10:30",0.0,32.2,67.0,1001.7,54.8,1.3,3.1,37.7,0.51,25.3,26.6,"10:29:36",1
"22/08/13","10:40",0.0,32.8,66.6,1001.9,59.4,1.3,4.7,359.8,0.50,25.8,26.4,"10:32:00",1
"22/08/13","10:50",0.0,33.3,64.2,1002.2,99.8,1.2,4.4,97.4,0.55,25.7,26.5,"10:49:44",1
"22/08/13","11:00",0.0,33.4,64.4,1002.4,99.9,1.2,2.9,52.0,0.54,25.8,26.6,"10:50:56",1
"22/08/13","11:10",0.0,33.4,63.4,1002.4,113.3,1.3,4.2,144.1,0.55,25.5,26.5,"11:00:16",1
"22/08/13","11:20",0.0,33.6,62.9,1001.9,129.0,1.3,3.1,130.8,0.55,25.6,26.7,"11:16:16",1
"22/08/13","11:30",0.0,33.7,61.6,1001.7,117.8,1.3,4.0,125.7,0.55,25.3,26.5,"11:25:12",1
"22/08/13","11:40",0.0,33.7,60.7,1001.9,139.8,1.3,3.1,156.0,0.56,25.1,26.7,"11:35:04",1
"22/08/13","11:50",0.0,34.2,59.9,1002.4,123.4,1.0,1.9,352.6,0.50,25.3,26.8,"11:46:08",1
"22/08/13","12:00",0.0,33.8,61.0,1002.2,166.0,1.6,4.3,216.4,0.50,25.3,26.8,"11:59:36",1
"22/08/13","12:10",0.0,34.2,58.2,1002.2,172.5,2.0,3.9,190.6,0.65,24.8,26.7,"12:09:44",1
"22/08/13","12:20",0.0,33.2,61.2,1002.2,176.0,1.7,4.4,221.0,0.27,24.8,26.9,"12:15:04",1
"22/08/13","12:30",0.0,33.3,60.9,1001.5,197.2,2.0,4.2,132.4,0.43,24.8,27.1,"12:28:48",1
"22/08/13","12:40",0.0,32.7,63.2,1001.2,210.7,1.3,3.6,217.7,0.17,24.8,27.1,"12:31:04",1
"22/08/13","12:50",0.0,32.4,63.9,1001.0,184.3,1.7,4.3,194.2,0.16,24.7,27.1,"12:44:48",1
"22/08/13","13:00",0.0,32.2,64.9,1000.5,203.7,1.5,2.7,184.3,0.18,24.8,27.1,"12:50:32",1
"22/08/13","13:10",0.0,32.9,63.6,1000.8,182.0,1.0,2.2,116.4,0.29,25.1,27.0,"13:09:08",1
"22/08/13","13:20",0.0,33.4,65.1,1001.2,82.1,1.0,2.9,27.5,0.32,26.0,27.2,"13:17:44",1
"22/08/13","13:30",0.0,33.9,63.0,1001.5,77.5,1.0,2.4,27.5,0.48,25.9,27.2,"13:28:16",1
"22/08/13","13:40",0.0,33.4,63.3,1001.5,46.8,1.2,3.2,30.3,0.23,25.5,27.1,"13:39:36",1
"22/08/13","13:50",0.0,32.7,64.9,1001.2,20.7,0.7,2.1,38.7,0.07,25.3,27.2,"13:40:40",1
"22/08/13","14:00",0.0,32.2,67.0,1001.5,353.4,1.1,2.6,350.6,0.04,25.3,27.3,"13:59:44",1
"22/08/13","14:10",0.4,30.6,74.2,1000.3,357.4,1.6,4.1,357.7,0.07,25.5,27.4,"14:01:36",1
"22/08/13","14:20",0.0,29.7,79.3,999.3,351.9,0.8,2.1,359.5,0.13,25.8,27.2,"14:14:08",1
"22/08/13","14:30",0.0,29.4,81.0,999.8,332.6,0.3,1.4,337.3,0.09,25.8,27.1,"14:20:08",1
"22/08/13","14:40",0.4,29.2,82.2,999.3,330.0,0.5,1.1,346.0,0.02,25.9,27.3,"14:32:24",1
"22/08/13","14:50",0.2,29.1,83.6,998.9,313.4,0.5,1.2,0.5,0.03,26.1,27.3,"14:42:16",1
"22/08/13","15:00",0.0,29.2,84.9,998.6,338.1,1.2,3.1,27.2,0.11,26.4,27.3,"14:59:44",1
"22/08/13","15:10",0.6,28.8,85.6,998.4,354.3,1.3,3.6,27.6,0.17,26.2,27.3,"15:00:48",1
"22/08/13","15:20",0.0,28.6,85.8,998.6,318.7,1.0,2.2,354.8,0.12,26.0,27.5,"15:13:12",1
"22/08/13","15:30",0.0,28.7,86.2,998.9,338.7,1.1,3.2,15.9,0.11,26.2,27.3,"15:27:36",1
"22/08/13","15:40",0.0,28.5,86.3,999.1,342.9,1.8,5.0,339.4,0.12,26.0,27.4,"15:36:16",1
"22/08/13","15:50",0.0,28.5,85.9,999.3,358.9,2.5,6.0,331.1,0.28,25.9,27.5,"15:44:32",1
"22/08/13","16:00",0.0,28.6,84.1,999.3,359.2,2.5,6.8,11.1,0.21,25.7,27.2,"15:50:40",1
"22/08/13","16:10",0.0,28.6,83.4,999.3,339.4,2.1,5.0,349.4,0.11,25.5,27.5,"16:02:32",1
"22/08/13","16:20",0.0,28.7,83.3,999.3,339.1,1.6,3.7,336.7,0.09,25.6,27.3,"16:16:00",1
"22/08/13","16:30",0.0,28.5,82.8,999.3,342.2,1.8,3.3,349.9,0.08,25.3,27.4,"16:26:32",1
"22/08/13","16:40",0.0,28.4,82.1,999.1,355.5,1.7,3.3,3.7,0.06,25.1,27.4,"16:35:52",1
"22/08/13","16:50",0.0,28.5,81.8,999.1,338.4,1.6,2.9,330.8,0.06,25.1,27.3,"16:49:44",1
"22/08/13","17:00",0.0,28.4,81.9,999.8,323.8,1.3,2.9,352.8,0.04,25.0,27.4,"16:54:00",1
"22/08/13","17:10",0.0,28.0,82.0,999.6,325.2,1.3,4.2,345.1,0.03,24.7,27.2,"17:09:36",1
"22/08/13","17:20",0.0,28.2,81.9,999.8,333.1,2.0,3.3,349.3,0.09,24.9,27.5,"17:11:04",1
"22/08/13","17:30",0.0,28.4,82.1,1000.3,253.0,1.1,2.5,224.7,0.07,25.1,27.2,"17:27:52",1
"22/08/13","17:40",0.0,28.7,81.9,1000.0,218.6,2.0,2.8,219.7,0.10,25.3,27.5,"17:34:24",1
"22/08/13","17:50",0.0,28.8,80.0,999.6,261.5,1.0,2.6,250.6,0.10,25.0,27.2,"17:40:40",1
"22/08/13","18:00",0.0,29.2,78.1,999.6,260.7,0.8,1.8,237.5,0.07,25.0,27.3,"17:50:08",1
"22/08/13","18:10",0.0,29.1,77.1,999.8,270.3,0.5,1.7,240.7,0.03,24.7,27.6,"18:04:00",1
"22/08/13","18:20",0.0,29.2,77.1,1000.0,358.8,0.8,1.7,348.4,0.01,24.8,27.3,"18:16:16",1
"22/08/13","18:30",0.0,28.9,78.8,1000.0,352.1,1.2,2.4,353.4,0.00,24.9,27.5,"18:24:56",1
"22/08/13","18:40",0.0,28.5,80.4,999.8,338.6,1.1,2.5,329.3,0.00,24.8,27.2,"18:31:28",1
"22/08/13","18:50",0.0,28.2,81.6,1000.0,324.3,0.7,1.3,314.0,0.00,24.8,27.2,"18:45:44",1
"22/08/13","19:00",0.0,28.0,82.9,1000.0,359.8,0.8,1.9,13.7,0.00,24.9,27.4,"18:56:32",1
"22/08/13","19:10",0.0,27.6,84.1,1000.5,343.8,1.1,2.1,355.1,0.00,24.7,27.3,"19:05:04",1
"22/08/13","19:20",0.0,27.2,84.9,1000.0,330.7,1.1,2.1,345.7,0.00,24.5,27.2,"19:19:04",1
"22/08/13","19:30",0.0,27.1,85.5,1000.5,300.7,1.0,1.9,312.8,0.00,24.5,27.2,"19:20:48",1
"22/08/13","19:40",0.0,27.0,86.0,1000.8,292.3,1.0,1.4,266.1,0.00,24.5,27.3,"19:34:16",1
"22/08/13","19:50",0.0,26.7,86.5,1001.2,337.1,0.8,1.4,6.6,0.00,24.3,27.1,"19:48:32",1
"22/08/13","20:00",0.0,26.4,86.8,1001.2,340.2,1.0,1.6,3.7,0.00,24.1,27.1,"19:51:36",1
"22/08/13","20:10",0.0,26.6,86.9,1001.7,343.9,0.8,1.6,357.0,0.00,24.3,27.1,"20:08:08",1
"22/08/13","20:20",0.0,26.7,87.1,1001.7,329.5,1.2,2.0,343.5,0.00,24.4,27.2,"20:17:28",1
"22/08/13","20:30",0.0,26.7,87.3,1001.9,298.6,1.1,2.4,324.9,0.00,24.5,27.0,"20:20:16",1
"22/08/13","20:40",0.0,26.6,87.2,1002.2,311.7,1.3,2.1,346.9,0.00,24.3,27.2,"20:36:08",1
"22/08/13","20:50",0.0,26.4,87.0,1001.9,342.9,1.0,1.7,21.4,0.00,24.1,27.1,"20:40:08",1
"22/08/13","21:00",0.0,26.3,86.9,1002.6,318.8,1.1,2.2,351.3,0.00,24.0,26.9,"20:52:56",1
"22/08/13","21:10",0.0,26.5,87.1,1002.2,311.7,1.1,1.9,320.1,0.00,24.2,27.0,"21:00:24",1
"22/08/13","21:20",0.0,26.4,87.2,1001.9,311.4,0.8,1.3,343.5,0.00,24.1,27.1,"21:12:24",1
"22/08/13","21:30",0.0,26.2,87.5,1001.9,331.0,0.7,1.7,353.6,0.00,24.0,27.0,"21:28:48",1
"22/08/13","21:40",0.0,26.1,87.8,1002.4,329.7,1.2,2.1,328.4,0.00,24.0,27.0,"21:35:04",1
"22/08/13","21:50",0.0,26.1,88.3,1001.9,322.8,1.1,1.8,339.7,0.00,24.1,26.9,"21:47:52",1
"22/08/13","22:00",0.0,26.0,88.6,1002.2,320.5,1.2,2.0,309.1,0.00,24.0,27.0,"21:56:56",1
"22/08/13","22:10",0.0,25.8,89.0,1002.2,320.3,1.2,2.0,344.1,0.00,23.9,26.8,"22:07:44",1
"22/08/13","22:20",0.0,25.7,89.1,1002.4,323.6,1.8,3.6,348.4,0.00,23.8,27.0,"22:16:48",1
"22/08/13","22:30",0.0,25.7,89.1,1002.2,325.7,1.7,2.8,348.2,0.00,23.8,26.8,"22:26:24",1
"22/08/13","22:40",0.0,25.8,89.1,1002.4,335.5,1.6,2.7,349.1,0.00,23.9,26.9,"22:30:24",1
"22/08/13","22:50",0.0,25.8,89.0,1001.7,327.0,1.6,2.9,345.9,0.00,23.9,26.9,"22:40:40",1
"22/08/13","23:00",0.0,25.8,88.9,1001.9,303.9,1.1,2.0,325.3,0.00,23.9,26.9,"22:51:52",1
"22/08/13","23:10",0.0,25.9,88.8,1002.2,345.2,1.5,2.6,347.1,0.00,23.9,26.9,"23:00:56",1
"22/08/13","23:20",0.0,25.7,88.7,1002.2,325.6,0.8,1.6,342.4,0.00,23.7,26.7,"23:10:40",1
"22/08/13","23:30",0.0,25.6,88.8,1002.4,287.8,0.8,1.4,321.4,0.00,23.7,26.7,"23:24:56",1
"22/08/13","23:40",0.0,25.5,88.9,1001.9,313.0,0.2,1.0,328.9,0.00,23.6,26.6,"23:39:52",1
"22/08/13","23:50",0.0,25.7,89.1,1001.9,328.2,1.1,2.0,339.9,0.00,23.8,26.6,"23:48:40",1
"22/08/13","24:00",0.0,25.5,89.3,1002.2,323.9,0.8,1.9,335.4,0.00,23.6,26.7,"23:51:04",1
